TIROS N 1 11060U 78096A 09183.93909438 -.00000003 +00000-0 +20702-4 0 02345 2 11060 098.9315 154.5256 0010723 336.2153 023.8524 14.17478864801181 NOAA 6 1 11416U 79057A 09183.70067803 -.00000003 +00000-0 +14669-4 0 08895 2 11416 098.4079 198.1429 0009701 212.2876 147.7712 14.31923408563931 NOAA 9 1 15427U 84123A 09183.84187147 -.00000090 +00000-0 -25112-4 0 07330 2 15427 098.4416 180.7250 0015286 017.6981 342.4726 14.15322126267178 NOAA 10 1 16969U 86073A 09183.64878172 -.00000043 +00000-0 +68775-6 0 06713 2 16969 098.6908 210.2119 0012628 148.2090 211.9843 14.27389237185718 NOAA 11 1 19531U 88089A 09183.69419707 -.00000217 +00000-0 -89631-4 0 06873 2 19531 098.7847 273.4087 0012291 067.1658 293.0813 14.14897276071714 NOAA 12 1 21263U 91032A 09183.96949769 +.00000012 +00000-0 +23963-4 0 01991 2 21263 098.7715 192.0355 0013495 098.5043 261.7667 14.25583837942645 NOAA 14 1 23455U 94089A 09183.74066950 -.00000155 +00000-0 -58481-4 0 06751 2 23455 098.9082 261.3668 0010120 142.5099 217.6771 14.13764358748128 NOAA 15 1 25338U 98030A 09183.71352162 +.00000215 +00000-0 +11064-3 0 09903 2 25338 098.5842 172.5796 0010970 019.1037 341.0540 14.24770592578989 NOAA 16 1 26536U 00055A 09183.66341395 -.00000255 +00000-0 -11279-3 0 04677 2 26536 099.1759 187.7036 0009698 233.9345 126.0918 14.12522361452484 NOAA 17 1 27453U 02032A 09183.80933826 -.00000036 +00000-0 +25903-5 0 04717 2 27453 098.4827 242.3409 0012830 080.1382 280.1215 14.24073471364972 NOAA 18 1 28654U 05018A 09183.78638805 -.00000115 +00000-0 -39159-4 0 09603 2 28654 098.9061 126.9047 0013679 323.0171 037.0062 14.11266782212159 NOAA 19 1 33591U 09005A 09183.76977404 +.00000176 +00000-0 +12202-3 0 01637 2 33591 098.7450 129.1247 0013822 195.0982 164.9794 14.10968021020635